Weather History for Iwami, Japan

Change the Weather History Date:

Thursday, January 17, 2013

  Actual Average Record
Temperature  
Mean Temperature 40 °F -  
Max Temperature 46 °F 46 °F 53 °F (2000)
Min Temperature 33 °F 37 °F 32 °F (2001)
Degree Days  
Heating Degree Days 26    
Moisture  
Dew Point 31 °F    
Average Humidity 80    
Maximum Humidity 93    
Minimum Humidity 37    
Precipitation  
Precipitation 0.00 in - - ()
Sea Level Pressure  
Sea Level Pressure 30.08 in    
Wind  
Wind Speed 11 mph ()    
Max Wind Speed 18 mph    
Max Gust Speed 31 mph    
Visibility 3.1 miles    
Events Rain , Snow , Thunderstorm    
Averages and records for this station are not official NWS values.
T = Trace of Precipitation, MM = Missing Value Source: Averaged Metar Reports

Daily Weather History Graph

Daily Weather History Graph

Search for Another Location

Airport:

Trip Planner

Search our weather history database for the weather conditions in past years. The results will help you decide how hot, cold, wet, or windy it might be!

Date:

Astronomy

Jan. 17, 2013 Rise Set
Actual Time 7:19 AM JST 5:26 PM JST
Civil Twilight 6:51 AM JST 5:54 PM JST
Nautical Twilight 6:20 AM JST 6:25 PM JST
Astronomical Twilight 5:50 AM JST 6:55 PM JST
Moon 10:23 AM JST 11:23 PM JST
Length of Visible Light 11h 02m
Length of Day
10h 07m
Waxing Crescent, 32% of the Moon is Illuminated
Jan 17
Waxing Crescent
Jan 19
First Quarter
Jan 27
Full
Feb 3
Last Quarter
Feb 10
New

Hourly Weather History & Observations

Time (JST) Temp. Windchill Dew Point Humidity Pressure Visibility Wind Dir Wind Speed Gust Speed Precip Events Conditions
8:00 AM 42.8 °F 35.4 °F 30.2 °F 61% 30.12 in 6.2 mi WNW 15.0 mph - N/A   Mostly Cloudy
9:00 AM 42.8 °F 35.4 °F 28.4 °F 57% 30.12 in 6.2 mi WNW 15.0 mph - N/A   Mostly Cloudy
10:00 AM 42.8 °F 37.0 °F 26.6 °F 53% 30.12 in 6.2 mi West 10.4 mph - N/A   Mostly Cloudy
11:00 AM 44.6 °F 38.8 °F 24.8 °F 46% 30.09 in 6.2 mi West 11.5 mph - N/A   Scattered Clouds
12:00 PM 46.4 °F 40.7 °F 21.2 °F 37% 30.06 in 6.2 mi West 12.7 mph - N/A   Scattered Clouds
12:42 PM 41.0 °F 32.2 °F 32.0 °F 70% 30.04 in 6.2 mi WNW 18.4 mph - N/A Rain Light Rain Showers
1:00 PM 39.2 °F 31.2 °F 33.8 °F 81% 30.04 in 5.0 mi WSW 13.8 mph - N/A Rain Light Rain Showers
1:30 PM 37.4 °F 30.3 °F 33.8 °F 87% 30.06 in 5.0 mi NNW 10.4 mph - N/A Rain Light Rain Showers
1:37 PM 35.6 °F 27.1 °F 32.0 °F 87% 30.06 in 1.6 mi NNE 12.7 mph - N/A Rain Light Rain Showers
1:41 PM 33.8 °F 24.8 °F 32.0 °F 93% 30.06 in 0.6 mi NNE 12.7 mph - N/A Rain , Snow Light Rain Showers
1:44 PM 33.8 °F 25.3 °F 32.0 °F 93% 30.06 in 0.9 mi NNE 11.5 mph - N/A Rain , Snow Snow Showers
2:00 PM 33.8 °F 29.6 °F 32.0 °F 93% 30.06 in 0.9 mi NE 4.6 mph - N/A Rain , Snow Snow Showers
2:11 PM 33.8 °F - 32.0 °F 93% 30.06 in 0.9 mi Variable 1.2 mph - N/A Rain , Snow Snow Showers
2:23 PM 33.8 °F 29.6 °F 32.0 °F 93% 30.06 in 1.6 mi North 4.6 mph - N/A Rain , Snow Light Snow Showers
2:29 PM 33.8 °F 28.6 °F 32.0 °F 93% 30.06 in 1.6 mi NNE 5.8 mph - N/A Rain , Snow Light Snow Showers
2:31 PM 33.8 °F 27.7 °F 32.0 °F 93% 30.06 in 1.2 mi NE 6.9 mph 20.7 mph N/A Rain , Snow Snow Showers
3:00 PM 33.8 °F 24.8 °F 32.0 °F 93% 30.06 in 1.2 mi NE 12.7 mph 28.8 mph N/A Rain , Snow Light Snow Showers
3:08 PM 33.8 °F 23.9 °F 32.0 °F 93% 30.06 in 1.2 mi NE 15.0 mph - N/A Rain , Snow , Thunderstorm Light Thunderstorms and Snow
3:14 PM 33.8 °F 23.9 °F 32.0 °F 93% 30.09 in 0.6 mi ENE 15.0 mph 27.6 mph N/A Rain , Snow , Thunderstorm Thunderstorms and Snow
4:00 PM 33.8 °F 24.8 °F 32.0 °F 93% 30.09 in 0.3 mi ENE 12.7 mph - N/A Snow , Thunderstorm Thunderstorms and Snow
5:00 PM 35.6 °F 25.5 °F 32.0 °F 87% 30.12 in 3.1 mi NNE 17.3 mph 29.9 mph N/A Snow Light Snow Showers
6:00 PM 35.6 °F 26.2 °F 30.2 °F 81% 30.18 in 3.7 mi NNE 15.0 mph 31.1 mph N/A   Light Small Hail Showers
7:00 PM 35.6 °F 26.6 °F 30.2 °F 81% 30.18 in 3.7 mi NNE 13.8 mph 29.9 mph N/A Rain , Snow Light Snow Showers